Regional Weather Roundup
Issued by NWS Memphis, TN

Home | Current Version | Previous Version | Text Only | Print | Product List | Glossary On
Versions: 1 2 3 4 5 6 7 8 9 10 11 12 13 14 15 16 17 18 19 20 21 22 23 24 25 26 27 28 29 30 31 32 33 34 35 36 37 38 39 40 41 42 43 44 45 46 47 48 49 50
000
ASUS44 KMEG 291010
RWRMEG
MEMPHIS CWA HOURLY WEATHER ROUNDUP
NATIONAL WEATHER SERVICE MEMPHIS TN
500 AM CDT FRI JUL 29 2016

...WEST TENNESSEE...

CITY           SKY/WX    TMP DP  RH WIND       PRES   REMARKS
MEMPHIS INTL   CLOUDY    76  72  87 SW9       29.96S
NWS MEMPHIS      N/A     76 N/A N/A MISG        N/A
JACKSON        MOCLDY    75  75 100 S6        29.95R
LEXINGTON      CLOUDY    75  73  94 S5        29.96R
DYERSBURG      CLOUDY   N/A N/A N/A MISG        N/A
UNION CITY     MOCLDY    73  73 100 S5        29.92F
PARIS          CLEAR     73  72  94 CALM      29.95S


...EASTERN ARKANSAS...

CITY           SKY/WX    TMP DP  RH WIND       PRES   REMARKS
JONESBORO      CLOUDY    77  75  93 SW9       29.91F
WEST MEMPHIS   CLOUDY    75  73  93 SW6       29.94F
BATESVILLE     CLEAR     75  72  88 CALM      29.92S
NEWPORT        CLOUDY    77  77 100 SW8       29.92F
WALNUT RIDGE   MOCLDY    73  70  88 CALM      29.90S
BLYTHEVILLE    CLOUDY    76  74  93 SW10G17   29.92S
SEARCY         MOCLDY    74  74 100 S7        29.94F
STUTTGART      CLOUDY    73  70  88 S8        29.96S
PINE BLUFF     CLOUDY    72  71  97 SW9       29.97S
MONTICELLO     MOCLDY    75  72  90 SW6       29.99S


...NORTH MISSISSIPPI...

CITY           SKY/WX    TMP DP  RH WIND       PRES   REMARKS
TUPELO         CLOUDY    75  71  87 S6        29.99R
OXFORD         CLOUDY    73  72  94 SW6       30.00F
BATESVILLE     CLOUDY    75  72  89 SW5       29.98F
TUNICA         CLOUDY    73  72  94 S7        29.97S
CLARKSDALE     CLOUDY    75  75 100 SW6       29.98S
CORINTH        CLOUDY    75  72  88 CALM      29.98R
GREENWOOD      CLOUDY    74  71  91 SW7       29.99S
COLUMBUS       CLOUDY    73  73 100 S3        29.99S
GOLDEN TRIANGL CLOUDY    75  68  78 CALM      29.99S


...SOUTHEAST MISSOURI...

CITY           SKY/WX    TMP DP  RH WIND       PRES   REMARKS
KENNETT        CLOUDY    75  75 100 SW5       29.90F FOG
WEST PLAINS    CLEAR     67  64  90 CALM      29.96F
POPLAR BLUFF   MOCLDY    71  69  93 SW3       29.90F
CAPE GIRARDEAU CLOUDY    72  70  93 S5        29.90S


...NORTHWEST ALABAMA...

CITY           SKY/WX    TMP DP  RH WIND       PRES   REMARKS
MUSCLE SHOALS  CLOUDY    74  72  93 W5        30.00R


...MIDDLE TENNESSEE...

CITY           SKY/WX    TMP DP  RH WIND       PRES   REMARKS
NASHVILLE      CLOUDY    77  73  87 SW3       29.97S
CLARKSVILLE    CLOUDY    74  73  97 S5        29.94S
COLUMBIA       CLOUDY   N/A N/A N/A SW6       29.97S


...WESTERN KENTUCKY...

CITY           SKY/WX    TMP DP  RH WIND       PRES   REMARKS
PADUCAH        MOCLDY    74  71  91 CALM      29.91R
FORT CAMPBELL  PTCLDY    75  73  95 S5        29.94R


...CENTRAL ARKANSAS...

CITY           SKY/WX    TMP DP  RH WIND       PRES   REMARKS
LITTLE ROCK    CLOUDY    76  72  87 SW8       29.94F


SKY/WX REPORTED AS FAIR MEANS FEW OR NO CLOUDS BELOW
12 THOUSAND FEET.





USA.gov is the U.S. government's official web portal to all federal, state and local government web resources and services.